TimeMST,TemperatureF,Dew PointF,Humidity,Sea Level PressureIn,VisibilityMPH,Wind Direction,Wind SpeedMPH,Gust SpeedMPH,PrecipitationIn,Events,Conditions,WindDirDegrees,DateUTC
12:53 AM,23.0,17.1,78,30.24,10.0,ESE,6.9,-,N/A,,Clear,120,2012-11-28 07:53:00
1:53 AM,21.9,16.0,78,30.22,10.0,East,3.5,-,N/A,,Clear,100,2012-11-28 08:53:00
2:53 AM,21.9,16.0,78,30.23,10.0,Calm,Calm,-,N/A,,Clear,0,2012-11-28 09:53:00
3:53 AM,19.9,16.0,85,30.24,10.0,Calm,Calm,-,N/A,,Clear,0,2012-11-28 10:53:00
4:53 AM,19.9,14.0,78,30.26,10.0,ESE,4.6,-,N/A,,Clear,120,2012-11-28 11:53:00
5:53 AM,19.9,15.1,81,30.27,10.0,Calm,Calm,-,N/A,,Clear,0,2012-11-28 12:53:00
6:53 AM,19.9,15.1,81,30.27,10.0,ESE,4.6,-,N/A,,Clear,110,2012-11-28 13:53:00
7:53 AM,23.0,18.0,81,30.27,10.0,East,3.5,-,N/A,,Clear,100,2012-11-28 14:53:00
8:53 AM,30.0,21.9,72,30.25,10.0,ESE,4.6,-,N/A,,Clear,110,2012-11-28 15:53:00
9:53 AM,37.0,24.1,59,30.22,10.0,SE,3.5,-,N/A,,Clear,130,2012-11-28 16:53:00
10:53 AM,46.9,24.1,41,30.17,10.0,Calm,Calm,-,N/A,,Clear,0,2012-11-28 17:53:00
11:53 AM,51.1,21.9,32,30.13,10.0,Calm,Calm,-,N/A,,Clear,0,2012-11-28 18:53:00
12:53 PM,53.1,21.0,29,30.09,10.0,NNW,6.9,-,N/A,,Clear,330,2012-11-28 19:53:00
1:53 PM,54.0,21.9,29,30.07,10.0,NNW,4.6,-,N/A,,Clear,340,2012-11-28 20:53:00
2:53 PM,53.1,24.1,32,30.06,10.0,Calm,Calm,-,N/A,,Clear,0,2012-11-28 21:53:00
3:53 PM,51.1,19.9,29,30.06,10.0,South,3.5,-,N/A,,Clear,170,2012-11-28 22:53:00
4:53 PM,42.1,24.1,49,30.09,10.0,Calm,Calm,-,N/A,,Clear,0,2012-11-28 23:53:00
5:53 PM,39.0,21.9,50,30.09,10.0,East,6.9,-,N/A,,Clear,90,2012-11-29 00:53:00
6:53 PM,32.0,19.9,61,30.11,10.0,North,-9999.0,-,N/A,,Clear,0,2012-11-29 01:53:00
7:03 PM,33.8,19.4,56,30.01,10.0,ENE,6.9,-,N/A,,Clear,60,2012-11-29 02:03:00
7:53 PM,30.0,19.0,64,30.10,10.0,NNE,6.9,-,N/A,,Clear,30,2012-11-29 02:53:00
8:53 PM,30.9,19.0,61,30.08,10.0,NE,3.5,-,N/A,,Clear,40,2012-11-29 03:53:00
9:53 PM,26.1,18.0,71,30.08,10.0,NNE,3.5,-,N/A,,Clear,20,2012-11-29 04:53:00
10:53 PM,30.0,18.0,61,30.04,10.0,North,5.8,-,N/A,,Clear,10,2012-11-29 05:53:00
11:53 PM,30.0,18.0,61,30.01,10.0,NNW,6.9,-,N/A,,Clear,340,2012-11-29 06:53:00